Tracking 19176 objects as of 27-May-2018
HD Live streaming from Space Station
objects crossing your sky now

FENGYUN 1C DEB

Track FENGYUN 1C DEB now!
10-day predictions


NORAD ID: 30057
Int'l Code: 1999-025PJ
Perigee: 846.1 km
Apogee: 1,302.6 km
Inclination: 98.9 °
Period: 106.6 minutes
Semi major axis: 7445 km
RCS: 0.0284 m2 (small)
Launch date: May 10, 1999
Source: People's Republic of China (PRC)
Launch site: Taiyaun Space Center, China (TSC)

Note: This is SATELLITE DEBRIS
aabbcc
Your satellite tracking list
Your tracking list is empty




NASA's NSSDC Master Catalog

Two Line Element Set (TLE):
1 30057U 99025PJ  18146.86764418 +.00000327 +00000-0 +41718-3 0  9990
2 30057 098.8808 100.5875 0306569 020.2188 036.9119 13.51378856559526
Source of the keplerian elements: AFSPC